| time (UTC) | temp F | wind direction | speed knots | gust knots | rain 1hr in | rain 24hr in | rain mn in | humidity % | barometer mb |
| 20260505041703 | 74 | 260 | 1.7 | 4.3 | 0.00 | 0.28 | 0.14 | 87 | 1004.8 |
| 20260505040706 | 74 | 250 | 0.9 | 4.3 | 0.00 | 0.28 | 0.14 | 87 | 1004.8 |
| 20260505035704 | 74 | 240 | 0.9 | 4.3 | 0.00 | 0.28 | 0.14 | 87 | 1004.8 |
| 20260505034703 | 74 | 230 | 0.9 | 4.3 | 0.00 | 0.28 | 0.14 | 88 | 1004.8 |
| 20260505033703 | 74 | 0 | 0.0 | 4.3 | 0.00 | 0.28 | 0.14 | 90 | 1004.8 |
| 20260505032704 | 73 | 0 | 0.0 | 4.3 | 0.00 | 0.28 | 0.14 | 91 | 1005.0 |
| 20260505031704 | 73 | 30 | 0.0 | 4.3 | 0.02 | 0.28 | 0.14 | 89 | 1005.1 |
| 20260505030703 | 73 | 240 | 0.9 | 5.2 | 0.02 | 0.28 | 0.14 | 90 | 1005.3 |
| 20260505025703 | 73 | 230 | 0.9 | 5.2 | 0.04 | 0.28 | 0.14 | 92 | 1005.3 |
| 20260505024704 | 72 | 0 | 0.0 | 5.2 | 0.08 | 0.28 | 0.14 | 93 | 1005.2 |
| 20260505023704 | 73 | 0 | 0.0 | 5.2 | 0.08 | 0.28 | 0.14 | 92 | 1005.2 |
| 20260505022704 | 72 | 0 | 0.0 | 5.2 | 0.08 | 0.28 | 0.14 | 92 | 1005.2 |
| 20260505021703 | 72 | 0 | 0.0 | 5.2 | 0.08 | 0.28 | 0.14 | 91 | 1005.2 |
| 20260505020704 | 72 | 310 | 0.9 | 3.5 | 0.08 | 0.26 | 0.12 | 89 | 1005.1 |
| 20260505015704 | 72 | 310 | 0.9 | 3.5 | 0.06 | 0.24 | 0.10 | 88 | 1005.3 |
| 20260505014703 | 72 | 0 | 0.0 | 3.5 | 0.02 | 0.20 | 0.06 | 89 | 1005.2 |
| 20260505013703 | 72 | 310 | 0.9 | 3.5 | 0.02 | 0.20 | 0.06 | 90 | 1005.1 |
| 20260505012703 | 72 | 260 | 2.6 | 3.5 | 0.02 | 0.20 | 0.06 | 88 | 1005.3 |
| 20260505011703 | 72 | 0 | 0.0 | 3.5 | 0.02 | 0.20 | 0.06 | 89 | 1005.1 |
| 20260505010704 | 72 | 0 | 0.0 | 5.2 | 0.00 | 0.18 | 0.04 | 87 | 1005.1 |
| 20260505005704 | 72 | 0 | 0.0 | 5.2 | 0.00 | 0.18 | 0.04 | 89 | 1005.1 |
| 20260505004703 | 71 | 0 | 0.0 | 5.2 | 0.00 | 0.18 | 0.04 | 90 | 1004.9 |
| 20260505003708 | 72 | 0 | 0.0 | 5.2 | 0.00 | 0.18 | 0.04 | 90 | 1004.9 |
| 20260505002704 | 71 | 30 | 0.9 | 5.2 | 0.00 | 0.18 | 0.04 | 90 | 1004.9 |
| 20260505001705 | 71 | 20 | 1.7 | 5.2 | 0.00 | 0.18 | 0.04 | 89 | 1004.9 |
| 20260505000704 | 71 | 350 | 0.9 | 7.0 | 0.00 | 0.18 | 0.04 | 90 | 1004.9 |
| 20260504235704 | 71 | 320 | 1.7 | 7.0 | 0.00 | 0.18 | 0.04 | 89 | 1004.9 |
| 20260504234703 | 71 | 330 | 1.7 | 7.0 | 0.00 | 0.18 | 0.04 | 89 | 1004.8 |
| 20260504233703 | 71 | 340 | 1.7 | 7.0 | 0.00 | 0.18 | 0.04 | 90 | 1004.6 |
| 20260504232704 | 71 | 340 | 0.9 | 7.0 | 0.00 | 0.18 | 0.04 | 91 | 1004.7 |
| 20260504231704 | 71 | 0 | 1.7 | 7.0 | 0.00 | 0.18 | 0.04 | 92 | 1004.6 |
| 20260504230704 | 71 | 0 | 0.0 | 5.2 | 0.00 | 0.18 | 0.04 | 92 | 1004.4 |
| 20260504225704 | 71 | 330 | 0.9 | 5.2 | 0.00 | 0.18 | 0.04 | 91 | 1004.4 |
| 20260504224703 | 71 | 340 | 2.6 | 5.2 | 0.00 | 0.18 | 0.04 | 91 | 1004.3 |
| 20260504223704 | 71 | 320 | 0.9 | 5.2 | 0.00 | 0.18 | 0.04 | 90 | 1004.3 |
| 20260504222705 | 71 | 330 | 1.7 | 5.2 | 0.00 | 0.18 | 0.04 | 90 | 1004.2 |
| 20260504221704 | 71 | 330 | 1.7 | 5.2 | 0.00 | 0.18 | 0.04 | 90 | 1004.2 |
| 20260504220704 | 71 | 330 | 1.7 | 4.3 | 0.00 | 0.18 | 0.04 | 93 | 1004.0 |
| 20260504215703 | 72 | 0 | 0.0 | 4.3 | 0.00 | 0.18 | 0.04 | 94 | 1003.9 |
| 20260504214704 | 72 | 0 | 0.0 | 4.3 | 0.00 | 0.18 | 0.04 | 93 | 1003.8 |
| 20260504213703 | 72 | 240 | 0.9 | 4.3 | 0.00 | 0.18 | 0.04 | 92 | 1003.9 |
| 20260504212703 | 72 | 230 | 0.9 | 4.3 | 0.00 | 0.18 | 0.04 | 92 | 1003.8 |
| 20260504211704 | 72 | 200 | 1.7 | 4.3 | 0.00 | 0.18 | 0.04 | 92 | 1003.8 |
| 20260504210703 | 71 | 250 | 1.7 | 2.6 | 0.00 | 0.18 | 0.04 | 93 | 1003.8 |
| 20260504205703 | 72 | 0 | 0.0 | 2.6 | 0.00 | 0.18 | 0.04 | 94 | 1003.7 |
| 20260504204703 | 71 | 220 | 0.9 | 2.6 | 0.00 | 0.18 | 0.04 | 95 | 1003.6 |
| 20260504203704 | 71 | 230 | 0.9 | 2.6 | 0.00 | 0.18 | 0.04 | 95 | 1003.5 |
| 20260504202703 | 71 | 0 | 0.0 | 2.6 | 0.00 | 0.18 | 0.04 | 95 | 1003.4 |
| 20260504201703 | 71 | 0 | 0.0 | 2.6 | 0.00 | 0.18 | 0.04 | 95 | 1003.3 |
| 20260504200704 | 71 | 0 | 0.0 | 3.5 | 0.00 | 0.18 | 0.04 | 95 | 1003.3 |
| 20260504195703 | 71 | 0 | 0.0 | 3.5 | 0.00 | 0.18 | 0.04 | 95 | 1003.4 |
| 20260504194703 | 71 | 0 | 0.0 | 3.5 | 0.00 | 0.18 | 0.04 | 95 | 1003.3 |
| 20260504193704 | 71 | 210 | 0.9 | 3.5 | 0.00 | 0.18 | 0.04 | 95 | 1003.4 |
| 20260504192704 | 71 | 0 | 0.0 | 3.5 | 0.00 | 0.18 | 0.04 | 95 | 1003.3 |
| 20260504191703 | 71 | 230 | 1.7 | 3.5 | 0.00 | 0.18 | 0.04 | 96 | 1003.3 |
| 20260504190703 | 71 | 240 | 0.9 | 3.5 | 0.00 | 0.18 | 0.04 | 96 | 1003.3 |
| 20260504185704 | 71 | 0 | 0.0 | 3.5 | 0.00 | 0.18 | 0.04 | 96 | 1003.3 |
| 20260504184703 | 71 | 170 | 0.9 | 3.5 | 0.00 | 0.18 | 0.04 | 96 | 1003.2 |
| 20260504183703 | 71 | 160 | 0.9 | 3.5 | 0.02 | 0.18 | 0.04 | 95 | 1003.2 |
| 20260504182704 | 71 | 0 | 0.0 | 3.5 | 0.02 | 0.18 | 0.04 | 96 | 1003.5 |
| 20260504181703 | 71 | 0 | 0.0 | 3.5 | 0.02 | 0.18 | 0.04 | 96 | 1003.6 |
| 20260504180703 | 71 | 0 | 0.0 | 1.7 | 0.02 | 0.18 | 0.04 | 96 | 1003.6 |
| 20260504175703 | 71 | 160 | 0.9 | 1.7 | 0.02 | 0.18 | 0.04 | 96 | 1003.6 |
| 20260504174704 | 71 | 0 | 0.0 | 1.7 | 0.02 | 0.18 | 0.04 | 95 | 1003.8 |
| 20260504173706 | 70 | 0 | 0.0 | 1.7 | 0.00 | 0.16 | 0.02 | 96 | 1004.0 |
| 20260504172703 | 70 | 0 | 0.0 | 1.7 | 0.00 | 0.16 | 0.02 | 95 | 1003.9 |
| 20260504171705 | 70 | 0 | 0.0 | 1.7 | 0.02 | 0.16 | 0.02 | 95 | 1004.1 |
| 20260504170703 | 70 | 0 | 0.0 | 7.0 | 0.02 | 0.16 | 0.02 | 95 | 1004.2 |
| 20260504150704 | 71 | 270 | 0.9 | 4.3 | 0.00 | 0.14 | 0.14 | 92 | 1005.1 |
| 20260504140703 | 72 | 330 | 0.9 | 10.4 | 0.00 | 0.14 | 0.14 | 92 | 1004.7 |
| 20260504130703 | 70 | 0 | 0.0 | 7.8 | 0.02 | 0.14 | 0.14 | 95 | 1004.6 |
| 20260504110703 | 71 | 340 | 1.7 | 10.4 | 0.06 | 0.10 | 0.10 | 89 | 1004.7 |
| 20260504081704 | 79 | 350 | 3.5 | 9.6 | 0.00 | 0.00 | 0.00 | 54 | 1002.7 |
| 20260504080703 | 79 | 330 | 2.6 | 11.3 | 0.00 | 0.00 | 0.00 | 53 | 1002.6 |
| 20260504050704 | 82 | 320 | 4.3 | 15.6 | 0.00 | 0.00 | 0.00 | 51 | 1003.4 |